TIME,DELAY(SENSOR),PRES,OXYGEN,RAWTEMP,T(OPTODE),TCPHASE,FLUOR,BETA(BETA700),BETA(BETA412),BETA(BETA440),CDOM,C(CSC),ED(ED412.40),ED(ED444.00),ED(ED489.70),ED(ED554.30),LU(LU411.80),LU(LU443.40),LU(LU489.60),LU(LU554.10),COMP,TILTX,TILTY,CHECK
1345347557,5808,899.6099853515625000,46.4751281738281250,662.0321044921875000,4.5610499382019040,54.0676383972168000,53,102,88,80,82,15348,2147757888,2147420790,2148008073,2147872393,2147641380,2147064146,2148257920,2147202441,1463,4,13,26670
1345351153,5808,959.2500000000000000,48.9249687194824200,670.4207153320312000,4.2842998504638670,53.8264389038085940,52,99,85,80,80,15349,2147761060,2147419766,2148005924,2147876489,2147642523,2147064338,2148255323,2147197129,403,5,13,16027
1345354753,5812,973.5100097656250000,49.0093307495117200,670.9387817382812000,4.2671809196472170,53.8191795349121100,52,99,88,80,81,15347,2147757430,2147419611,2148011072,2147876452,2147641572,2147059446,2148258642,2147198976,3551,5,13,31307
1345358353,5808,976.0999755859375000,48.4103393554687500,672.7974243164062000,4.2057437896728520,53.9228515625000000,53,98,84,80,81,15347,2147759561,2147420653,2148005613,2147876169,2147644032,2147057590,2148260370,2147197842,477,4,13,55536
1345361953,5809,974.5100097656250000,48.6683502197265600,673.9710083007812000,4.1669311523437500,53.9025001525878900,52,100,89,80,83,15348,2147757211,2147419584,2148008000,2147870985,2147642377,2147059657,2148259062,2147198317,89,5,13,55059
1345365553,5810,983.2199707031250000,49.1919403076171900,674.2321166992188000,4.1582951545715330,53.8352699279785160,52,100,92,78,82,15348,2147762258,2147418285,2148007881,2147871158,2147643547,2147064868,2148257453,2147201270,159,5,13,28829
1345369153,5808,972.8499755859375000,49.1343803405761700,675.4711303710938000,4.1172938346862790,53.8616294860839840,53,99,89,78,82,15349,2147762358,2147419995,2148008009,2147875154,2147643812,2147059136,2148259520,2147198473,213,5,13,3459
1345372753,5811,982.7399902343750000,49.6106910705566400,675.7819824218750000,4.1070060729980470,53.7969703674316400,52,97,89,78,82,15347,2147761801,2147419675,2148007817,2147875428,2147644781,2147060105,2148260032,2147196937,83,5,13,14827
1345376353,5810,978.8499755859375000,49.7933998107910160,675.7410888671875000,4.1083598136901855,53.7725982666015600,53,99,88,80,81,15347,2147759451,2147420013,2148010486,2147873078,2147641033,2147057627,2148262866,2147198592,512,5,13,59657
1345379953,5808,985.3499755859375000,49.6125717163085940,675.3875732421875000,4.1200599670410160,53.7942581176757800,52,97,85,80,81,15347,2147757769,2147421650,2148010075,2147875666,2147645888,2147056512,2148258240,2147197366,228,5,13,44970
1345383553,5804,987.5100097656250000,49.6090393066406250,675.6469726562500000,4.1114730834960940,53.7944412231445300,53,98,86,80,81,15347,2147761152,2147419830,2148008045,2147874852,2147644214,2147060580,2148264713,2147199808,164,5,13,31119
1345387153,5808,988.6799926757812000,48.4317283630371100,675.4459228515625000,4.1181302070617680,53.9551315307617200,52,98,88,78,81,15345,2147757869,2147415954,2148010112,2147873609,2147642998,2147061686,2148259684,2147199698,48,5,13,58085
1345390753,5808,1001.6199951171875000,48.3869209289550800,674.4824218750000000,4.1500129699707030,53.9478988647460940,53,100,85,80,82,15311,2147758628,2147423085,2148010404,2147872054,2147642413,2147057545,2148262308,2147197028,467,5,13,40848
1345394353,5811,990.3200073242188000,47.9740600585937500,673.3516845703125000,4.1874141693115230,53.9953613281250000,52,99,88,78,83,15309,2147760329,2147420333,2148007094,2147880027,2147643940,2147063177,2148255085,2147199881,3308,5,13,16547
1345397953,5808,1000.0000000000000000,47.6346397399902340,673.1798095703125000,4.1930980682373050,54.0398712158203100,53,98,89,79,82,15311,2147758061,2147420662,2148008000,2147874285,2147640128,2147058020,2148260123,2147201069,3110,5,13,33956
1345401553,5810,994.0300292968750000,47.3044700622558600,673.2562255859375000,4.1905732154846190,54.0846405029296900,54,100,88,81,82,15313,2147759414,2147420324,2148004589,2147874002,2147643328,2147057947,2148263881,2147200685,3367,4,13,57561
1345405153,5809,992.8699951171875000,48.1809883117675800,674.3546752929688000,4.1542382240295410,53.9791183471679700,52,99,89,79,82,15308,2147759625,2147424073,2148007689,2147875821,2147645394,2147055588,2148260525,2147197092,390,5,13,18484
1345408753,5809,990.9099731445312000,47.7114982604980500,674.9155273437500000,4.1356830596923830,54.0535507202148440,53,98,86,80,80,15306,2147759414,2147419181,2148010157,2147873380,2147643136,2147062043,2148261339,2147200237,214,4,13,18592
1345412353,5812,987.5100097656250000,48.6359405517578100,676.0438232421875000,4.0983390808105470,53.9373512268066400,52,98,87,78,83,15308,2147758180,2147418989,2148008338,2147874102,2147643830,2147061769,2148256283,2147197897,253,5,13,22489
1345415953,5810,986.0499877929688000,49.9768791198730500,677.0761718750000000,4.0641570091247560,53.7611198425293000,53,100,87,79,81,15309,2147759716,2147421120,2148008969,2147876141,2147642340,2147056429,2148258907,2147198592,3509,4,13,28382
1345419553,5809,984.9799804687500000,50.4020500183105500,677.0037841796875000,4.0665550231933590,53.7052001953125000,52,99,85,79,82,15310,2147758272,2147421101,2148009837,2147874605,2147645312,2147063762,2148258825,2147199131,153,4,13,11365
1345423153,5809,987.8400268554688000,50.8194084167480500,677.0714111328125000,4.0643200874328610,53.6468086242675800,53,97,88,77,82,15304,2147760658,2147420260,2148005778,2147871890,2147644251,2147059547,2148264768,2147195355,3131,4,13,14558
1345426753,5809,996.6599731445312000,49.1227798461914060,676.1911010742188000,4.0934638977050780,53.8679313659668000,53,99,87,80,82,15306,2147762486,2147421229,2148005357,2147874779,2147644900,2147058934,2148260608,2147198080,3273,5,13,59173
1345430353,5805,997.2399902343750000,48.8005790710449200,675.5795288085938000,4.1137099266052250,53.9050407409668000,51,99,87,80,82,15306,2147757860,2147420946,2148006573,2147873481,2147644050,2147056000,2148260882,2147199488,79,5,13,40863
1345433953,5808,1001.3300170898438000,48.8225097656250000,675.1043701171875000,4.1294331550598145,53.8948516845703100,53,99,88,79,80,15306,2147761929,2147422336,2148006308,2147873106,2147642340,2147059062,2148258166,2147200164,218,5,13,53219
1345437553,5810,1006.9799804687500000,48.2651786804199200,673.4191284179688000,4.1851859092712400,53.9521293640136700,53,98,87,79,82,15303,2147758464,2147422089,2148007588,2147873938,2147643090,2147056429,2148257901,2147195456,591,5,13,20613
1345441153,5807,1003.4600219726562000,48.7004508972168000,674.0991210937500000,4.1626949310302730,53.9011611938476560,53,99,87,78,81,15302,2147760859,2147419145,2148007670,2147875958,2147639067,2147064027,2148264850,2147200146,3484,4,13,24484
1345444753,5810,996.8200073242188000,48.2520790100097660,674.2329711914062000,4.1582617759704590,53.9640197753906250,51,100,91,81,81,15305,2147758354,2147419986,2148008402,2147874688,2147645156,2147058870,2148258157,2147196918,3309,4,13,53189
1345448353,5809,989.0000000000000000,48.3385200500488300,675.7164916992188000,4.1091752052307130,53.9722290039062500,53,99,88,78,82,15302,2147759734,2147422637,2148006857,2147874614,2147643419,2147060909,2148264850,2147196196,3269,5,13,2725
1345451953,5807,993.2899780273438000,49.5374794006347660,676.9453735351562000,4.0684909820556640,53.8174705505371100,52,99,85,79,82,15261,2147757046,2147419574,2148007515,2147873499,2147642752,2147062281,2148265161,2147199542,3566,4,13,32301
1345455553,5809,992.5100097656250000,50.2240409851074200,677.1353759765625000,4.0621991157531740,53.7266616821289060,53,97,85,78,82,15303,2147758884,2147417316,2148007625,2147874852,2147643136,2147062802,2148260845,2147200128,3595,4,13,54464
1345459153,5808,987.0000000000000000,50.0154914855957000,677.6395874023438000,4.0455021858215330,53.7635612487793000,52,98,89,81,82,15300,2147761517,2147420617,2148008932,2147873490,2147642496,2147062052,2148262793,2147199680,3459,4,13,50057
1345462753,5809,987.5000000000000000,51.2330017089843750,678.0922241210938000,4.0305099487304690,53.6034889221191400,52,99,89,78,81,15301,2147760685,2147421366,2148009005,2147873728,2147642907,2147063890,2148264630,2147196882,72,5,13,24052
1345466353,5808,997.1500244140625000,51.7080116271972660,677.5961914062500000,4.0469379425048830,53.5298805236816400,52,100,87,79,82,15299,2147758326,2147421577,2148010459,2147877220,2147643794,2147060141,2148262400,2147198089,3027,4,13,16551
1345469953,5807,992.1099853515625000,50.4186897277832000,677.4213867187500000,4.0527272224426270,53.7086410522460940,54,97,90,79,82,15299,2147762002,2147420864,2148008274,2147876864,2147644553,2147059382,2148261321,2147198802,262,4,13,61527
1345473553,5812,990.5900268554688000,50.4926910400390600,677.2468261718750000,4.0585098266601560,53.6926193237304700,52,98,87,81,82,15282,2147759945,2147422710,2148008548,2147875657,2147646674,2147057206,2148265618,2147198043,42,5,13,46640
1345477153,5808,994.3900146484375000,49.9860801696777340,676.8267211914062000,4.0724220275878910,53.7585182189941400,53,98,87,79,82,15283,2147760996,2147422500,2148007862,2147874450,2147642934,2147056822,2148264841,2147195840,191,4,13,31855
1345480753,5807,1013.3499755859375000,48.5272407531738300,675.0471801757812000,4.1313228607177730,53.9387397766113300,52,99,87,79,82,15279,2147763163,2147420626,2148008173,2147874514,2147645266,2147065069,2148269732,2147195922,205,4,13,63941
1345484353,5808,1016.8800048828125000,47.8648796081543000,673.4860839843750000,4.1829681396484375,54.0123100280761700,51,98,88,79,83,15278,2147760109,2147419757,2148007332,2147872758,2147642322,2147062272,2148261586,2147196973,2608,5,13,60755
1345487953,5810,1009.7500000000000000,47.2913017272949200,672.8969726562500000,4.2024521827697750,54.0862617492675800,53,99,91,80,82,15280,2147758464,2147420891,2148010148,2147876882,2147643584,2147056054,2148259483,2147195382,147,4,13,24319
1345491553,5805,1006.2199707031250000,47.3968887329101560,674.0070800781250000,4.1657347679138180,54.0819587707519500,53,99,88,78,83,15281,2147757430,2147420388,2148011172,2147874340,2147643867,2147057563,2148259968,2147197696,3475,4,13,8801
1345492256,5806,999.9400024414062000,47.6276016235351560,674.0740966796875000,4.1635208129882810,54.0497398376464840,53,99,87,80,82,15336,2147758436,2147419922,2148010276,2147873298,2147643849,2147060982,2148258276,2147199890,788,5,13,13389
